#timestamp,LO_Frequency,Hit,StdDev 
1703908815.6,286046996.9,N
1703908835.5,286046994.9,N
1703908855.3,286046997.5,N
1703908875.1,286046994.9,N
1703908895.9,286046998.0,N
1703908915.7,286046995.0,N
1703908935.6,286046997.8,N
1703908955.4,286046997.5,N
1703909005.3,286046997.6,E
1703909015.2,286046996.6,N
1703909035.0,286046999.5,P
1703909035.9,286046999.5,N
1703909055.8,286046999.4,N
1703909075.6,286047000.6,N
1703909095.4,286047000.0,N
1703909115.3,286047000.2,N
1703909135.1,286047001.2,N
1703909155.9,286046998.1,N
1703909175.7,286047001.1,N
1703909195.5,286046998.8,N
1703909215.4,286046996.5,N
1703909235.2,286046996.5,N
1703909255.0,286046996.8,N
1703909255.9,286046996.8,N
1703909275.8,286046998.7,N
1703909295.6,286046999.0,N
1703909315.5,286046999.1,N
1703909335.3,286046996.6,N
1703909355.1,286046999.4,N
1703909375.9,286046996.7,N
1703909395.7,286046996.6,N
1703909415.5,286046996.9,N
1703909435.4,286046998.9,N
1703909455.2,286046999.0,N
1703909475.1,286047001.0,N
1703909476.0,286047001.0,N
1703909495.8,286046999.8,N
1703909515.6,286047001.8,N
1703909535.5,286047002.6,N
1703909555.3,286046999.7,N
1703909575.2,286047001.4,N
1703909595.9,286047004.4,N
1703909615.7,286047001.4,N
1703909635.6,286047001.9,N
1703909655.4,286047004.1,N
1703909675.3,286047004.0,N
1703909695.1,286047004.1,N
1703909696.0,286047004.1,N
1703909715.8,286047004.3,N
1703909735.7,286047002.3,N
1703909755.5,286047002.2,N
1703909775.3,286047001.4,N
1703909795.2,286047001.4,N
1703909815.0,286047002.3,N
1703909815.9,286047002.3,N
1703909835.8,286047000.4,N
1703909855.6,286047002.7,N
1703909875.4,286047001.7,N
1703909895.3,286047003.9,N
1703909915.1,286047003.1,N
1703909935.8,286047003.6,N
1703909955.7,286047004.1,N
1703909975.5,286047005.3,Y
1703909995.4,286047001.6,P
1703910015.2,286047001.7,P
1703910035.0,286047003.1,P
1703910035.9,286047003.1,Y
1703910055.8,286046999.8,P
1703910075.6,286047001.6,N
1703910095.5,286047001.5,N
1703910115.3,286047002.2,N
1703910135.1,286047002.1,N
1703910155.9,286047001.9,N
1703910175.7,286047001.4,N
1703910195.6,286047003.6,Y
1703910215.4,286047004.0,P
1703910235.3,286047001.4,N
1703910255.1,286047001.7,N
1703910256.0,286047001.7,N
1703910275.8,286047001.9,N
1703910295.7,286047000.2,N
1703910315.5,286047000.1,N
1703910335.4,286046999.9,N
1703910355.2,286047000.5,N
1703910375.0,286046998.4,N
1703910375.9,286046998.4,N
1703910395.8,286047000.2,N
1703910415.6,286047002.2,N
1703910435.4,286047002.8,N
1703910455.3,286047002.4,N
1703910475.1,286047002.0,N
1703910495.9,286047002.7,N
1703910515.7,286047002.2,N
1703910535.5,286047002.7,N
1703910555.4,286047002.1,N
1703910575.2,286047003.9,N
1703910595.0,286047002.6,N
1703910595.9,286047002.6,N
1703910615.8,286047004.4,Y
1703910635.6,286047002.3,P
1703910655.5,286047002.4,P
1703910675.3,286047000.1,N
1703910695.1,286046999.8,N
1703910715.9,286046999.8,N
1703910735.7,286047000.0,N
1703910755.5,286046999.8,N
1703910775.8,286046999.7,N
1703910795.6,286047000.5,N
1703910815.5,286047002.7,N
1703910835.3,286046999.7,N
1703910855.2,286047000.4,N
1703910875.9,286047000.9,N
1703910895.7,286047001.1,N
1703910915.6,286047002.8,N
1703910935.4,286047000.9,N
1703910955.2,286047000.4,N
1703910975.1,286047002.1,N
1703910976.0,286047002.1,N
1703910995.8,286047002.2,N
1703911015.7,286047003.5,Y
1703911035.5,286047002.8,P
1703911055.3,286046998.1,N
1703911075.2,286046998.1,N
1703911095.0,286047000.7,N
1703911095.9,286047000.7,N
1703911115.8,286046999.9,N
1703911135.6,286047002.4,N
1703911155.4,286047002.2,N
1703911175.3,286047000.1,N
1703911195.1,286046999.7,N
1703911215.8,286047000.3,N
1703911235.7,286047000.4,N
1703911255.5,286047000.9,N
1703911275.3,286047001.0,N
1703911295.2,286047000.8,N
1703911315.0,286047000.3,N
1703911315.9,286047000.3,N
1703911335.8,286047000.4,N
1703911355.6,286046998.1,N
1703911375.4,286047000.9,N
1703911395.3,286047002.6,N
1703911415.1,286046999.7,N
1703911435.8,286047002.0,N
1703911455.7,286047002.4,N
1703911475.5,286046999.8,N
1703911495.4,286047000.5,N
1703911515.2,286047000.3,N
1703911535.0,286047000.3,N
1703911535.9,286047000.3,N
1703911555.8,286047002.8,N
1703911575.6,286047001.7,N
1703911595.5,286047001.4,N
1703911615.3,286047004.3,Y
1703911635.1,286047003.9,P
1703911655.9,286047001.3,N
1703911675.7,286047002.3,N
1703911695.6,286047001.5,N
1703911715.4,286047000.0,N
1703911735.2,286047001.0,N
1703911755.1,286047002.4,N
1703911756.0,286047002.4,N
1703911775.8,286046999.8,N
1703911795.7,286047002.7,N
1703911815.5,286047000.5,N
1703911835.3,286047000.5,N
1703911855.2,286047000.0,N
1703911875.0,286047000.1,N
1703911875.9,286047000.1,N
1703911895.8,286047000.4,N
1703911915.6,286046999.9,N
1703911935.4,286047002.3,N
1703911955.3,286046999.7,N
1703911975.1,286046999.9,N
1703911995.8,286047000.0,N
1703912015.7,286047000.4,N
1703912035.5,286046998.2,N
1703912055.4,286047000.6,N
1703912075.2,286046998.7,N
1703912095.0,286046998.1,N
1703912095.9,286046998.1,N
1703912115.8,286046998.3,N
1703912135.6,286047001.1,N
1703912155.5,286046998.5,N
1703912175.3,286046998.2,N
1703912195.1,286046998.3,N
1703912215.9,286046998.4,N
1703912235.7,286046998.4,N
1703912255.5,286046998.8,N
1703912275.4,286046998.1,N
1703912295.2,286047000.6,N
1703912315.1,286047000.9,N
1703912316.0,286047000.9,N
1703912335.8,286047000.2,N
1703912355.6,286047002.8,N
1703912375.5,286047002.1,N
1703912395.3,286047002.8,N
